EW2561 Weather Reports


time (UTC)temp
F
wind
direction
speed
knots
gust
knots
rain 1hr
in
rain 24hr
in
rain mn
in
humidity
%
barometer
mb
20260507093632 55 12 0.9 3.5 0.00 0.07 0.00 81 1012.6
20260507093357 55 162 0.9 3.5 0.00 0.07 0.00 80 1012.6
20260507092631 54 57 0.9 4.3 0.00 0.08 0.00 82 1012.6
20260507092104 54 20 0.9 4.3 0.00 0.09 0.00 82 1012.6
20260507091603 53 103 0.9 3.5 0.00 0.09 0.00 83 1012.5
20260507091032 53 255 0.9 3.5 0.00 0.09 0.00 85 1012.6
20260507090532 53 38 0.9 3.5 0.00 0.09 0.00 84 1012.5
20260507090006 53 257 0.9 3.5 0.00 0.09 0.00 84 1012.5
20260507085503 53 278 0.9 3.5 0.00 0.09 0.00 85 1012.5
20260507085002 52 31 1.7 3.5 0.00 0.09 0.00 85 1012.4
20260507084727 52 359 0.9 3.5 0.00 0.10 0.00 84 1012.4
20260507084010 52 273 0.9 2.6 0.00 0.10 0.00 85 1012.4
20260507083433 52 34 0.9 3.5 0.00 0.10 0.00 86 1012.3
20260507082931 52 1 0.9 2.6 0.00 0.11 0.00 86 1012.3
20260507082703 52 302 1.7 4.3 0.00 0.11 0.00 86 1012.3
20260507081931 52 334 0.9 4.3 0.00 0.11 0.00 86 1012.3
20260507081402 51 40 0.9 2.6 0.00 0.12 0.00 87 1012.3
20260507080903 51 300 0.0 1.7 0.00 0.12 0.00 87 1012.3
20260507080402 51 359 0.9 2.6 0.00 0.12 0.00 88 1012.2
20260507075907 51 289 1.7 4.3 0.00 0.12 0.00 87 1012.2
20260507075404 51 20 0.9 4.3 0.00 0.12 0.00 87 1012.1
20260507074904 51 11 0.0 2.6 0.00 0.13 0.00 88 1012.1
20260507074402 51 49 0.9 2.6 0.00 0.13 0.00 89 1011.9
20260507073831 51 314 0.9 2.6 0.00 0.13 0.00 90 1012.0
20260507073323 51 265 0.9 3.5 0.00 0.13 0.00 90 1012.0
20260507072802 50 22 0.9 3.5 0.00 0.13 0.00 90 1011.9
20260507072532 50 326 0.9 2.6 0.00 0.13 0.00 90 1011.8
20260507072025 50 283 0.9 2.6 0.00 0.13 0.00 90 1011.8
20260507071302 50 14 0.9 2.6 0.00 0.14 0.00 90 1011.8
20260507070746 50 1 0.9 2.6 0.00 0.14 0.00 91 1011.8
20260507070450 50 1 0.9 2.6 0.00 0.15 0.00 91 1011.7
20260507065732 50 1 0.9 2.6 0.00 0.15 0.00 91 1011.6
20260507065231 49 9 0.9 2.6 0.00 0.16 0.00 92 1011.6
20260507064731 49 33 0.9 2.6 0.00 0.16 0.00 92 1011.6
20260507064227 49 314 0.9 3.5 0.00 0.16 0.00 92 1011.6
20260507063724 49 7 0.9 3.5 0.00 0.17 0.00 92 1011.6
20260507063205 49 4 0.9 2.6 0.00 0.17 0.00 92 1011.5
20260507062705 49 1 0.9 3.5 0.00 0.17 0.00 93 1011.6
20260507062141 49 298 0.0 1.7 0.00 0.17 0.00 94 1011.5
20260507061640 49 298 0.9 1.7 0.00 0.18 0.00 94 1011.5
20260507061138 49 304 0.9 2.6 0.00 0.18 0.00 94 1011.4
20260507060632 48 34 0.9 2.6 0.00 0.18 0.00 94 1011.3
20260507060356 48 8 0.9 2.6 0.00 0.18 0.00 95 1011.3
20260507055603 48 31 0.0 1.7 0.00 0.19 0.00 95 1011.3
20260507055102 48 31 0.0 1.7 0.00 0.19 0.00 96 1011.2
20260507054604 48 359 0.0 1.7 0.00 0.19 0.00 96 1011.2
20260507054033 48 359 0.0 1.7 0.00 0.20 0.00 96 1011.2
20260507053528 48 6 0.0 0.9 0.00 0.20 0.00 96 1011.1
20260507053026 47 1 0.0 2.6 0.00 0.20 0.00 96 1011.1
20260507052533 47 357 0.0 1.7 0.00 0.20 0.00 96 1011.1
20260507052022 47 324 0.0 0.9 0.00 0.20 0.00 96 1011.1
20260507051739 47 324 0.0 1.7 0.00 0.21 0.00 96 1011.0
20260507051003 47 326 0.0 1.7 0.00 0.21 0.00 97 1010.9
20260507050722 47 8 0.0 0.0 0.00 0.21 0.00 97 1010.8
20260507050151 47 8 0.0 1.7 0.00 0.22 0.00 97 1010.8
20260507045433 47 8 0.0 1.7 0.00 0.22 0.00 97 1010.7
20260507044932 47 4 0.0 1.7 0.00 0.22 0.00 97 1010.6
20260507044428 47 4 0.0 0.0 0.00 0.23 0.00 97 1010.5
20260507043928 47 4 0.0 1.7 0.00 0.23 0.00 97 1010.5
20260507043650 47 328 0.0 0.9 0.00 0.23 0.00 97 1010.4
20260507042921 47 328 0.0 0.9 0.00 0.24 0.00 97 1010.4
20260507042420 47 328 0.0 0.9 0.00 0.24 0.00 97 1010.3
20260507041917 47 359 0.0 0.9 0.00 0.24 0.00 97 1010.3
20260507041402 47 359 0.0 0.9 0.00 0.24 0.00 97 1010.3
20260507040902 47 359 0.0 0.9 0.00 0.24 0.00 97 1010.2
20260507040404 47 359 0.0 1.7 0.00 0.24 0.00 97 1010.1
20260507035902 47 359 0.0 1.7 0.00 0.24 0.00 97 1010.1
20260507035332 47 0 0.0 2.6 0.00 0.24 0.00 97 1010.1
20260507035042 47 0 0.0 2.6 0.00 0.25 0.00 97 1010.1
20260507034303 47 4 0.0 0.0 0.00 0.25 0.00 97 1010.1
20260507033803 47 4 0.0 0.9 0.00 0.25 0.00 97 1010.1
20260507033231 47 4 0.0 0.9 0.00 0.26 0.00 97 1010.1
20260507032955 47 4 0.0 0.0 0.00 0.26 0.00 97 1010.0
20260507032231 46 4 0.0 0.0 0.00 0.27 0.00 97 1010.0
20260507031703 47 4 0.0 0.0 0.00 0.27 0.00 97 1010.0
20260507031203 46 4 0.0 0.0 0.00 0.28 0.00 97 1010.0
20260507030701 47 4 0.0 0.0 0.00 0.28 0.00 97 1010.0
20260507030148 46 4 0.0 0.0 0.00 0.28 0.00 97 1010.0
20260507025641 46 4 0.0 0.0 0.00 0.29 0.00 97 1009.9
20260507025354 46 4 0.0 0.0 0.00 0.29 0.00 97 1010.0
20260507024630 46 4 0.0 0.0 0.00 0.30 0.00 97 1010.0
20260507024103 46 4 0.0 0.0 0.00 0.31 0.00 97 1009.9
20260507023602 46 4 0.0 0.0 0.00 0.31 0.00 97 1009.8
20260507023031 46 4 0.0 0.0 0.00 0.31 0.00 97 1009.9
20260507022752 46 4 0.0 0.0 0.00 0.32 0.00 97 1009.8
20260507022004 46 4 0.0 0.0 0.00 0.32 0.00 97 1009.7
20260507021504 46 4 0.0 0.0 0.00 0.32 0.00 97 1009.7
20260507021004 46 4 0.0 0.0 0.00 0.33 0.00 97 1009.7
20260507020432 46 4 0.0 0.0 0.00 0.34 0.00 97 1009.7
20260507015926 46 4 0.0 0.0 0.00 0.34 0.00 97 1009.7
20260507015404 46 4 0.0 0.0 0.00 0.35 0.00 97 1009.6
20260507014904 46 4 0.0 0.0 0.00 0.35 0.00 97 1009.6
20260507014332 46 4 0.0 0.0 0.00 0.35 0.00 97 1009.7
20260507013820 46 4 0.0 0.0 0.00 0.35 0.00 97 1009.7
20260507013303 46 4 0.0 0.0 0.00 0.36 0.00 97 1009.7
20260507012802 46 4 0.0 0.0 0.00 0.37 0.00 97 1009.6
20260507012527 46 4 0.0 0.0 0.00 0.37 0.00 97 1009.6
20260507011803 46 4 0.0 0.0 0.00 0.38 0.00 97 1009.6
20260507011302 46 4 0.0 0.0 0.00 0.38 0.00 97 1009.5
20260507010730 46 4 0.0 0.0 0.00 0.38 0.00 97 1009.4
20260507010222 46 4 0.0 0.0 0.00 0.39 0.00 97 1009.4
20260507005703 46 4 0.0 0.0 0.00 0.39 0.00 97 1009.4
20260507005203 46 4 0.0 0.0 0.00 0.39 0.00 97 1009.4
20260507004644 46 4 0.0 0.0 0.00 0.39 0.00 97 1009.4
20260507004139 46 4 0.0 0.0 0.00 0.39 0.00 97 1009.4
20260507003637 46 4 0.0 0.9 0.00 0.40 0.00 97 1009.5
20260507003136 46 4 0.0 0.9 0.00 0.40 0.00 96 1009.5
20260507002855 46 4 0.0 0.0 0.00 0.40 0.00 96 1009.4
20260507002131 46 4 0.0 0.0 0.00 0.41 0.00 96 1009.3
20260507001632 46 4 0.0 0.0 0.00 0.42 0.00 96 1009.4
20260507001138 46 4 0.0 0.0 0.00 0.42 0.00 96 1009.3
20260507000608 46 4 0.0 0.0 0.00 0.43 0.00 96 1009.3
20260507000107 46 4 0.0 0.0 0.00 0.43 0.00 96 1009.3
20260506235536 46 4 0.0 0.0 0.00 0.43 0.00 96 1009.3
20260506235034 46 4 0.0 0.0 0.00 0.43 0.00 96 1009.3
20260506234503 45 4 0.0 0.0 0.00 0.43 0.00 96 1009.4
20260506234003 45 4 0.0 0.0 0.00 0.44 0.00 96 1009.4
20260506233508 46 4 0.0 0.0 0.00 0.44 0.00 96 1009.3
20260506233155 45 4 0.0 0.0 0.00 0.44 0.00 95 1009.3
20260506232428 46 4 0.0 0.0 0.00 0.45 0.00 95 1009.3
20260506231912 46 4 0.0 0.0 0.00 0.45 0.00 95 1009.3
20260506231412 46 4 0.0 0.0 0.00 0.45 0.00 95 1009.2
20260506230840 46 4 0.0 0.0 0.00 0.45 0.00 95 1009.2
20260506230559 46 4 0.0 0.0 0.00 0.46 0.00 95 1009.2
20260506225827 46 4 0.0 0.0 0.00 0.46 0.00 95 1009.1
20260506225528 46 4 0.0 0.0 0.00 0.46 0.00 95 1009.1
20260506224804 46 4 0.0 0.0 0.00 0.47 0.00 95 1009.0
20260506224302 46 4 0.0 0.0 0.00 0.47 0.00 95 1009.0
20260506223802 46 4 0.0 0.0 0.00 0.48 0.00 95 1008.9
20260506223231 47 4 0.0 1.7 0.00 0.48 0.00 95 1008.9
20260506222730 47 4 0.0 1.7 0.00 0.49 0.00 95 1008.8
20260506222218 47 15 0.9 3.5 0.00 0.49 0.00 95 1008.8
20260506221712 47 18 0.9 3.5 0.00 0.50 0.00 95 1008.7
20260506221427 47 39 0.0 0.9 0.00 0.50 0.00 95 1008.7
20260506220631 47 1 0.0 0.0 0.00 0.50 0.00 94 1008.6
20260506220131 47 1 0.0 0.9 0.00 0.50 0.00 94 1008.5
20260506215604 47 23 0.0 0.9 0.00 0.50 0.50 94 1008.5
20260506215103 47 23 0.0 1.7 0.00 0.51 0.50 94 1008.5
20260506214603 48 8 0.0 1.7 0.00 0.51 0.50 94 1008.3
20260506214031 48 32 0.0 1.7 0.00 0.52 0.50 94 1008.4
20260506213748 48 33 0.9 3.5 0.00 0.52 0.50 94 1008.3
20260506213003 48 33 0.9 3.5 0.00 0.53 0.50 94 1008.3
20260506212431 48 20 0.9 2.6 0.00 0.53 0.50 95 1008.3
20260506211932 48 47 0.9 4.3 0.00 0.54 0.50 95 1008.3
20260506211427 48 43 0.9 4.3 0.00 0.54 0.50 95 1008.3
20260506210919 48 1 0.0 1.7 0.00 0.54 0.50 95 1008.3
20260506210403 48 1 0.0 0.9 0.00 0.55 0.50 95 1008.3
20260506205830 48 1 0.0 0.9 0.00 0.55 0.50 95 1008.3
20260506205331 48 1 0.0 1.7 0.00 0.56 0.50 95 1008.3
20260506205058 48 1 0.0 1.7 0.00 0.56 0.50 95 1008.3
20260506204325 48 1 0.9 3.5 0.00 0.57 0.50 95 1008.2
20260506203803 48 347 0.9 3.5 0.00 0.57 0.50 95 1008.2
20260506203302 48 10 0.9 2.6 0.00 0.57 0.50 95 1008.2
20260506202803 48 23 0.9 2.6 0.00 0.58 0.50 95 1008.2
20260506202306 48 3 0.9 3.5 0.00 0.58 0.50 95 1008.1
20260506201802 48 4 0.9 3.5 0.00 0.59 0.50 95 1008.1
20260506201302 48 1 0.9 4.3 0.00 0.59 0.50 95 1008.1
20260506200751 48 359 0.0 4.3 0.00 0.59 0.50 95 1008.1
20260506200233 48 1 0.9 3.5 0.00 0.59 0.50 95 1008.1
20260506195731 48 8 0.0 2.6 0.00 0.60 0.50 95 1008.1
20260506195230 48 0 0.0 0.0 0.00 0.60 0.50 95 1008.0
20260506194729 48 0 0.0 1.7 0.00 0.60 0.50 95 1007.9
20260506194226 48 0 0.9 2.6 0.00 0.60 0.50 95 1007.9
20260506193704 48 3 0.9 2.6 0.00 0.61 0.50 95 1007.9
20260506193203 48 44 0.9 1.7 0.00 0.61 0.50 95 1007.8
20260506192647 48 1 0.9 3.5 0.00 0.61 0.50 95 1007.7
20260506192133 48 2 0.9 3.5 0.00 0.61 0.50 95 1007.7
20260506191632 48 41 0.9 3.5 0.00 0.61 0.50 95 1007.6
20260506191130 48 51 1.7 3.5 0.00 0.61 0.50 94 1007.6
20260506190632 48 7 1.7 2.6 0.00 0.62 0.50 94 1007.6
20260506190326 48 57 0.9 3.5 0.00 0.62 0.50 94 1007.6
20260506190039 48 6 0.9 2.6 0.00 0.62 0.50 94 1007.5
20260506190030 48 359 0.9 3.5 0.00 0.62 0.50 94 1007.5
20260506184538 48 20 0.9 2.6 0.00 0.62 0.50 94 1007.4
20260506184251 48 7 0.9 5.2 0.00 0.62 0.50 94 1007.4
20260506183531 49 1 0.9 5.2 0.00 0.62 0.50 93 1007.4
20260506183027 49 23 0.9 2.6 0.00 0.62 0.50 93 1007.3
20260506182507 49 15 0.9 2.6 0.00 0.62 0.50 93 1007.2
20260506182008 49 22 0.9 3.5 0.00 0.62 0.50 93 1007.1
20260506181437 49 8 0.9 3.5 0.00 0.62 0.50 93 1007.1
20260506180935 49 333 0.9 3.5 0.00 0.62 0.50 93 1007.1
20260506180432 49 22 0.9 3.5 0.00 0.62 0.50 93 1007.0
20260506175930 49 343 0.9 2.6 0.00 0.62 0.50 93 1006.9
20260506175430 49 34 0.9 2.6 0.00 0.62 0.50 93 1006.9
20260506174932 49 63 1.7 5.2 0.00 0.62 0.50 93 1006.9
20260506174430 49 6 1.7 5.2 0.00 0.62 0.50 92 1006.8
20260506173930 49 1 1.7 5.2 0.00 0.62 0.50 92 1006.7
20260506173655 49 1 1.7 4.3 0.00 0.62 0.50 92 1006.7
20260506173156 49 65 1.7 4.3 0.00 0.62 0.50 92 1006.6
20260506172425 49 354 0.9 4.3 0.00 0.62 0.50 92 1006.5
20260506171905 49 141 0.9 3.5 0.00 0.62 0.50 92 1006.5
20260506171402 50 23 0.9 3.5 0.00 0.62 0.50 91 1006.4
20260506170902 50 37 0.9 2.6 0.00 0.62 0.50 92 1006.4
20260506170331 50 72 0.0 2.6 0.00 0.62 0.50 92 1006.4
20260506165830 50 8 0.0 1.7 0.00 0.62 0.50 91 1006.4
20260506165557 50 345 0.0 1.7 0.00 0.62 0.50 91 1006.4
20260506164805 50 7 0.9 2.6 0.00 0.62 0.50 91 1006.3
20260506164307 50 78 0.9 3.5 0.00 0.62 0.50 91 1006.3
20260506163732 50 1 0.9 3.5 0.00 0.62 0.50 91 1006.3
20260506163231 50 1 1.7 3.5 0.00 0.62 0.50 91 1006.3
20260506162725 50 56 1.7 3.5 0.00 0.62 0.50 91 1006.3
20260506162445 50 347 1.7 5.2 0.00 0.62 0.50 91 1006.2
20260506161927 50 57 1.7 5.2 0.00 0.62 0.50 91 1006.2
20260506161202 50 11 2.6 6.1 0.00 0.62 0.50 91 1006.2
20260506160652 50 1 2.6 6.1 0.00 0.62 0.50 92 1006.1
20260506160132 50 38 1.7 5.2 0.00 0.62 0.50 92 1006.1
20260506155629 49 354 1.7 4.3 0.00 0.62 0.50 92 1006.1
20260506155104 49 15 1.7 4.3 0.00 0.62 0.50 92 1006.1
20260506154603 49 11 2.6 7.0 0.00 0.62 0.50 92 1006.1
20260506154032 49 358 2.6 7.0 0.00 0.62 0.50 92 1006.1
20260506153529 49 357 2.6 5.2 0.00 0.62 0.50 92 1006.1
20260506153032 49 9 1.7 6.1 0.00 0.62 0.50 92 1006.1
20260506152524 49 8 2.6 6.1 0.00 0.62 0.50 93 1006.1
20260506152019 49 13 2.6 6.1 0.00 0.62 0.50 93 1006.1
20260506151504 49 2 1.7 6.1 0.00 0.62 0.50 93 1006.0
20260506150937 49 257 1.7 6.1 0.00 0.62 0.50 93 1006.0
20260506150433 49 2 1.7 6.1 0.00 0.62 0.50 93 1006.0
20260506150202 49 1 0.9 5.2 0.00 0.62 0.50 93 1005.9
20260506145656 49 319 0.9 3.5 0.00 0.62 0.50 93 1005.9
20260506145153 49 13 0.9 5.2 0.00 0.62 0.50 93 1005.9
20260506144432 49 23 1.7 5.2 0.00 0.62 0.50 93 1005.9
20260506143930 49 40 2.6 6.1 0.00 0.62 0.50 93 1005.9
20260506143430 49 359 2.6 6.1 0.00 0.62 0.50 93 1005.9
20260506142930 49 0 1.7 5.2 0.00 0.62 0.50 94 1005.9
20260506142436 49 287 1.7 7.0 0.00 0.62 0.50 94 1005.9
20260506141932 49 21 1.7 5.2 0.00 0.62 0.50 94 1005.9
20260506141433 49 62 1.7 5.2 0.00 0.62 0.50 95 1006.0
20260506141132 49 8 1.7 4.3 0.00 0.62 0.50 95 1006.0
20260506140626 49 10 1.7 4.3 0.00 0.62 0.50 95 1005.9
20260506135902 49 357 1.7 4.3 0.00 0.62 0.50 95 1005.9
20260506135402 49 41 0.9 3.5 0.00 0.62 0.50 95 1005.9
20260506134903 49 0 0.9 1.7 0.00 0.62 0.50 95 1005.9
20260506134332 49 24 0.9 5.2 0.00 0.62 0.50 95 1005.9
20260506133832 49 345 1.7 4.3 0.00 0.62 0.50 95 1005.9
20260506133303 49 5 1.7 5.2 0.01 0.62 0.50 95 1005.9
20260506132802 49 41 1.7 5.2 0.01 0.62 0.50 95 1005.8
20260506132453 49 359 1.7 6.1 0.01 0.62 0.50 95 1005.8
20260506131730 49 0 1.7 6.1 0.01 0.62 0.50 95 1005.8
20260506131452 49 9 1.7 5.2 0.01 0.62 0.50 95 1005.8
20260506130730 49 40 1.7 5.2 0.01 0.62 0.50 95 1005.7
20260506130213 49 25 1.7 4.3 0.02 0.62 0.50 95 1005.6
20260506125703 49 1 1.7 4.3 0.02 0.62 0.50 95 1005.6
20260506125202 49 309 1.7 7.0 0.02 0.62 0.50 95 1005.6
20260506124645 49 16 1.7 7.0 0.02 0.62 0.50 95 1005.5
20260506124359 49 30 1.7 6.1 0.02 0.62 0.50 95 1005.5
20260506123856 49 11 2.6 6.1 0.01 0.61 0.50 95 1005.5
20260506123131 49 8 2.6 6.1 0.01 0.61 0.50 95 1005.5
20260506122630 49 354 2.6 6.1 0.01 0.61 0.50 95 1005.5
20260506122103 49 10 1.7 4.3 0.02 0.61 0.50 95 1005.4
20260506121602 49 297 1.7 7.8 0.02 0.61 0.50 96 1005.4
20260506121032 49 346 2.6 7.8 0.02 0.61 0.50 96 1005.3
20260506120531 49 24 2.6 6.1 0.02 0.61 0.50 95 1005.3
20260506120257 49 3 2.6 7.0 0.02 0.61 0.49 95 1005.3
20260506115529 49 281 1.7 7.0 0.02 0.61 0.49 96 1005.2
20260506115026 49 343 2.6 7.8 0.02 0.61 0.49 96 1005.1
20260506114520 49 1 3.5 7.8 0.02 0.61 0.49 96 1005.1
20260506114226 49 49 3.5 9.6 0.02 0.61 0.49 96 1005.0
20260506113504 49 298 2.6 9.6 0.02 0.61 0.49 96 1005.0
20260506112932 49 0 2.6 6.1 0.03 0.61 0.49 96 1005.0
20260506112430 49 3 2.6 6.1 0.03 0.61 0.49 96 1004.9
20260506112153 49 46 2.6 6.1 0.02 0.60 0.48 96 1004.9
20260506111430 50 340 1.7 6.1 0.03 0.60 0.48 96 1004.9
20260506110931 50 8 1.7 6.1 0.02 0.59 0.47 96 1004.9
20260506110405 50 296 1.7 6.1 0.02 0.59 0.47 96 1004.9
20260506105904 50 32 1.7 4.3 0.02 0.59 0.47 97 1004.8
20260506105332 50 1 1.7 4.3 0.02 0.59 0.47 97 1004.8
20260506104820 50 64 0.9 4.3 0.02 0.58 0.46 97 1004.8
20260506104302 50 288 0.9 3.5 0.02 0.58 0.46 97 1004.8
20260506103802 50 271 0.9 4.3 0.02 0.58 0.46 97 1004.8
20260506103303 50 330 0.9 4.3 0.02 0.57 0.46 97 1004.8
20260506102802 50 248 1.7 6.1 0.03 0.57 0.46 97 1004.7
20260506102305 50 1 1.7 6.1 0.03 0.57 0.46 97 1004.7
20260506101731 50 321 1.7 6.1 0.04 0.57 0.45 97 1004.7
20260506101239 50 1 0.9 6.1 0.03 0.57 0.45 97 1004.7
20260506100736 50 269 0.9 3.5 0.04 0.57 0.45 97 1004.6
20260506100230 50 21 1.7 3.5 0.04 0.57 0.45 97 1004.6
20260506095731 50 12 0.9 4.3 0.04 0.57 0.45 97 1004.5
20260506095709 50 333 0.9 3.5 0.03 0.56 0.44 97 1004.5
20260506094721 50 291 1.7 6.1 0.04 0.56 0.44 97 1004.5
20260506094203 50 286 1.7 6.1 0.04 0.56 0.44 97 1004.5